Hourly Data Report for July 05, 2017

CAPE RACE (AUT)
NEWFOUNDLAND

46°39'36.000" N
53°04'35.000" W
26.50 m
8401000
71800
WRA

Download Data

Hourly Data (July 2017)
Hourly Data Report for July 5, 2017
TIME
LST
Temp Definition
°C
Dew Point Definition
°C
Rel Hum Definition
%
Precip. Amount Definition
mm

Wind Dir Definition
10's deg

Wind Spd Definition
km/h
Visibility Definition
km
Stn Press Definition
kPa
Hmdx Definition


Wind Chill Definition


Weather Definition


00:30 7.6 LegendMM 100 0.0 23 6   101.15     LegendNANA
01:30 7.5 LegendMM 100 0.0 4 16   101.18     LegendNANA
02:30 6.2 LegendMM 100 0.0 4 15   101.17     LegendNANA
03:30 5.6 LegendMM 100 0.0 4 22   101.22     LegendNANA
04:30 5.9 LegendMM 100 0.0 5 24   101.31     LegendNANA
05:30 6.5 LegendMM 100 0.0 4 29   101.36     LegendNANA
06:30 6.5 LegendMM 100 0.0 4 31   101.45     LegendNANA
07:30 6.5 LegendMM 100 0.0 4 27   101.46     LegendNANA
08:30 7.1 LegendMM 100 0.0 4 30   101.52     LegendNANA
09:30 7.3 7.0 98 0.0 4 31   101.55     LegendNANA
10:30 8.0 7.5 96 0.0 4 29   101.60     LegendNANA
11:30 8.3 7.4 94 0.0 4 28   101.61     LegendNANA
12:30 8.4 7.4 94 0.0 4 29   101.61     LegendNANA
13:30 7.9 6.7 92 0.0 4 33   101.61     LegendNANA
14:30 7.9 7.0 94 0.0 4 33   101.64     LegendNANA
15:30 7.5 6.7 94 0.0 4 27   101.65     LegendNANA
16:30 7.4 6.7 95 0.0 4 23   101.64     LegendNANA
17:30 7.9 7.0 94 0.0 4 26   101.66     LegendNANA
18:30 7.8 7.1 95 0.0 4 24   101.68     LegendNANA
19:30 7.5 6.9 96 0.0 4 21   101.72     LegendNANA
20:30 7.4 6.8 96 0.0 4 20   101.75     LegendNANA
21:30 6.6 6.1 96 0.0 4 15   101.79     LegendNANA
22:30 6.7 6.3 97 0.0 4 16   101.78     LegendNANA
23:30 6.1 6.0 99 0.0 2 16   101.79     LegendNANA

Notes on Data Quality.

Legend

  • E = Estimated
  • M = Missing
  • NA = Not Available*
  • [empty] = Indicates an unobserved value
Date modified: